SCP
1 1 0 0 1 0 0 0 0 0 0 0 0 0 0 0 0 0 0 0 0 0
1 1 1 1 0 0 0 0 0 0 0 0 0 0 0 0 0 0 0 0 -0 -0
1 0 0 0 0 0 0 0 0 0 0 0 0 0 0 0 0 0 0 0 0 0
0 0 0 0 0 0 0 0 0 0 0 0 0 0 0 0 0 0 0 0 0 0
0 0 0 0 0 0 0 0 0 0 0 0 0 0 0 -0 0 0 -0 0 0 0
0 0 0 0 0 0 0 0 0 0 0 -0 -0 0 0 0 0 -0 -0 0 0 0
0 0 0 0 0 0 0 0 0 0 0 -0 -0 0 0 0 0 0 -0 0 0 0
0 0 0 0 0 0 0 0 0 0 0 0 0 0 0 0 0 0 0 0 0 0
0 0 0 0 0 0 0 0 0 0 0 0 0 -0 0 -0 0 0 -0 -0 0 0
0 0 0 0 0 0 0 0 0 0 0 0 0 -0 0 0 0 0 0 0 0 0
0 0 0 0 0 0 0 0 0 0 0 0 0 0 0 0 0 0 0 0 0 0
0 0 0 0 0 0 0 0 0 0 0 0 -0 0 0 0 0 0 0 0 0 0
0 0 0 0 0 -0 -0 -0 0 0 0 -0 -0 0 0 0 0 0 0 0 0 0
0 0 0 0 0 -0 -0 0 0 0 0 -0 -0 0 0 0 0 0 0 0 0 0
Wind_Speed_500mb
27 32 37 39 36 37 44 48 46 51 43 41 39 39 40 41 42 47 47 48 35 36
28 28 32 41 45 39 45 47 56 49 45 43 43 41 44 46 41 38 43 44 45 43
24 25 30 32 38 43 48 50 45 40 42 44 44 43 44 46 41 42 42 42 39 40
26 30 33 38 43 45 46 42 39 39 41 44 46 46 50 46 42 44 46 45 43 36
34 38 39 42 42 41 40 39 40 40 42 44 45 43 38 38 35 41 44 44 42 34
41 43 42 41 40 39 39 38 36 39 39 42 42 34 34 31 35 38 36 32 30 25
37 37 38 38 37 37 34 32 33 37 40 42 37 29 27 25 30 27 24 24 23 27
33 36 37 36 33 33 33 35 38 41 40 42 32 31 28 22 22 22 19 24 20 17
36 38 40 39 37 37 38 39 39 38 39 38 29 20 21 23 17 15 20 22 15 14
40 43 44 48 43 36 40 39 37 32 36 30 22 18 21 25 24 15 18 19 16 17
45 49 49 51 42 36 37 35 34 29 30 23 23 15 26 29 26 16 14 13 14 11
48 47 47 48 37 39 38 34 33 27 26 21 30 22 18 33 28 15 15 17 18 16
45 45 47 43 40 39 36 32 29 24 16 25 39 27 11 35 24 18 16 18 20 16
41 47 41 39 41 35 35 30 21 22 22 31 32 26 21 39 21 23 17 18 15 18
Wind_Direction_500mb
279 286 284 294 285 292 295 302 300 305 302 298 297 294 288 281 278 261 251 251 247 248
294 292 290 288 295 298 300 296 299 295 299 297 293 292 289 285 273 259 255 251 239 250
299 305 304 305 306 304 301 297 294 295 297 295 294 289 285 281 270 250 246 242 243 254
309 307 307 310 308 306 301 293 292 295 295 297 292 285 282 277 261 241 246 240 242 245
313 310 312 311 310 307 301 296 292 293 295 293 288 292 289 269 249 240 235 232 231 240
310 311 314 313 312 312 306 297 295 294 295 293 287 294 282 265 253 241 231 227 227 228
317 320 322 319 314 314 309 303 298 299 295 294 288 295 286 266 253 239 230 216 217 235
330 327 324 323 318 318 317 312 304 299 299 294 286 305 276 261 249 234 215 211 229 235
332 326 323 320 318 314 313 311 308 298 298 297 288 297 256 244 247 247 223 211 217 223
332 328 327 326 311 311 313 311 309 298 302 303 305 273 259 237 226 250 198 214 208 196
330 329 324 325 315 317 315 313 310 297 317 315 323 285 247 234 218 215 205 191 183 188
326 329 330 328 326 326 322 319 312 309 326 329 333 258 269 204 204 205 174 159 143 135
324 332 332 328 332 326 327 324 322 320 329 336 341 285 190 182 181 187 166 161 159 150
330 337 333 334 336 336 331 334 344 347 355 351 342 320 176 178 181 173 162 169 156 165
Wind_Speed_850mb
27 32 37 39 36 37 44 48 46 51 43 41 39 39 40 41 42 47 47 48 35 36
28 28 32 41 45 39 45 47 56 49 45 43 43 41 44 46 41 38 43 44 45 43
24 25 30 32 38 43 48 50 45 40 42 44 44 43 44 46 41 42 42 42 39 40
26 30 33 38 43 45 46 42 39 39 41 44 46 46 50 46 42 44 46 45 43 36
34 38 39 42 42 41 40 39 40 40 42 44 45 43 38 38 35 41 44 44 42 34
41 43 42 41 40 39 39 38 36 39 39 42 42 34 34 31 35 38 36 32 30 25
37 37 38 38 37 37 34 32 33 37 40 42 37 29 27 25 30 27 24 24 23 27
33 36 37 36 33 33 33 35 38 41 40 42 32 31 28 22 22 22 19 24 20 17
36 38 40 39 37 37 38 39 39 38 39 38 29 20 21 23 17 15 20 22 15 14
40 43 44 48 43 36 40 39 37 32 36 30 22 18 21 25 24 15 18 19 16 17
45 49 49 51 42 36 37 35 34 29 30 23 23 15 26 29 26 16 14 13 14 11
48 47 47 48 37 39 38 34 33 27 26 21 30 22 18 33 28 15 15 17 18 16
45 45 47 43 40 39 36 32 29 24 16 25 39 27 11 35 24 18 16 18 20 16
41 47 41 39 41 35 35 30 21 22 22 31 32 26 21 39 21 23 17 18 15 18
Wind_Direction_850mb
279 286 284 294 285 292 295 302 300 305 302 298 297 294 288 281 278 261 251 251 247 248
294 292 290 288 295 298 300 296 299 295 299 297 293 292 289 285 273 259 255 251 239 250
299 305 304 305 306 304 301 297 294 295 297 295 294 289 285 281 270 250 246 242 243 254
309 307 307 310 308 306 301 293 292 295 295 297 292 285 282 277 261 241 246 240 242 245
313 310 312 311 310 307 301 296 292 293 295 293 288 292 289 269 249 240 235 232 231 240
310 311 314 313 312 312 306 297 295 294 295 293 287 294 282 265 253 241 231 227 227 228
317 320 322 319 314 314 309 303 298 299 295 294 288 295 286 266 253 239 230 216 217 235
330 327 324 323 318 318 317 312 304 299 299 294 286 305 276 261 249 234 215 211 229 235
332 326 323 320 318 314 313 311 308 298 298 297 288 297 256 244 247 247 223 211 217 223
332 328 327 326 311 311 313 311 309 298 302 303 305 273 259 237 226 250 198 214 208 196
330 329 324 325 315 317 315 313 310 297 317 315 323 285 247 234 218 215 205 191 183 188
326 329 330 328 326 326 322 319 312 309 326 329 333 258 269 204 204 205 174 159 143 135
324 332 332 328 332 326 327 324 322 320 329 336 341 285 190 182 181 187 166 161 159 150
330 337 333 334 336 336 331 334 344 347 355 351 342 320 176 178 181 173 162 169 156 165